Weather History for Valdez Airport, AK

Change the Weather History Date:

Monday, May 6, 2013

  Actual Average Record
Temperature  
Mean Temperature 38 °F -  
Max Temperature 42 °F 49 °F 61 °F (1981)
Min Temperature 33 °F 36 °F 28 °F (1967)
Degree Days  
Heating Degree Days 28    
Moisture  
Dew Point 32 °F    
Average Humidity 79    
Maximum Humidity 93    
Minimum Humidity 57    
Precipitation  
Precipitation 0.00 in - - ()
Sea Level Pressure  
Sea Level Pressure 30.21 in    
Wind  
Wind Speed 1 mph (West)    
Max Wind Speed 5 mph    
Max Gust Speed -    
Visibility 10 miles    
Events      
Averages and records for this station are not official NWS values.
T = Trace of Precipitation, MM = Missing Value Source: NWS Daily Summary

Daily Weather History Graph

Daily Weather History Graph

Search for Another Location

Airport:

Trip Planner

Search our weather history database for the weather conditions in past years. The results will help you decide how hot, cold, wet, or windy it might be!

Date:

Astronomy

May. 06, 2013 Rise Set
Actual Time 5:21 AM AKDT 10:03 PM AKDT
Civil Twilight 4:20 AM AKDT 11:05 PM AKDT
Nautical Twilight 2:11 AM AKDT 1:09 AM AKDT
Astronomical Twilight Sun does not rise Sun does not rise
Moon 4:23 AM AKDT (5/6) 6:27 PM AKDT (5/6)
Length of Visible Light 18h 44m
Length of Day
16h 42m
Waning Crescent, 10% of the Moon is Illuminated
May 6
Waning Crescent
May 9
New
May 17
First Quarter
May 24
Full
May 31
Last Quarter

Hourly Weather History & Observations

Time (AKDT) Temp. Windchill Dew Point Humidity Pressure Visibility Wind Dir Wind Speed Gust Speed Precip Events Conditions
12:16 AM 35.6 °F - 33.8 °F 93% 30.14 in 10.0 mi Calm Calm - N/A   Overcast
12:36 AM 35.6 °F - 33.8 °F 93% 30.14 in 10.0 mi Calm Calm - N/A   Overcast
12:56 AM 35.6 °F - 32.0 °F 87% 30.14 in 10.0 mi Calm Calm - N/A   Overcast
1:16 AM 35.6 °F - 33.8 °F 93% 30.14 in 10.0 mi Calm Calm - N/A   Overcast
1:36 AM 35.6 °F - 33.8 °F 93% 30.15 in 10.0 mi Calm Calm - N/A   Overcast
1:56 AM 35.6 °F - 33.8 °F 93% 30.15 in 10.0 mi Calm Calm - N/A   Overcast
2:16 AM 35.6 °F - 32.0 °F 87% 30.15 in 10.0 mi Calm Calm - N/A   Overcast
2:36 AM 35.6 °F - 32.0 °F 87% 30.15 in 10.0 mi Calm Calm - N/A   Overcast
2:56 AM 35.6 °F - 33.8 °F 93% 30.15 in 10.0 mi Calm Calm - N/A   Overcast
3:16 AM 35.6 °F - 30.2 °F 81% 30.16 in 10.0 mi Calm Calm - N/A   Overcast
3:36 AM 33.8 °F - 32.0 °F 93% 30.16 in 10.0 mi Calm Calm - N/A   Overcast
3:56 AM 35.6 °F - 33.8 °F 93% 30.16 in 10.0 mi Calm Calm - N/A   Overcast
4:16 AM 35.6 °F - 32.0 °F 87% 30.16 in 10.0 mi Calm Calm - N/A   Overcast
4:36 AM 35.6 °F - 32.0 °F 87% 30.16 in 10.0 mi Calm Calm - N/A   Overcast
4:56 AM 35.6 °F - 33.8 °F 93% 30.16 in 10.0 mi Calm Calm - N/A   Overcast
5:16 AM 33.8 °F - 32.0 °F 93% 30.16 in 10.0 mi Calm Calm - N/A   Overcast
5:36 AM 35.6 °F - 33.8 °F 93% 30.17 in 10.0 mi Calm Calm - N/A   Overcast
5:56 AM 35.6 °F - 33.8 °F 93% 30.17 in 10.0 mi Calm Calm - N/A   Mostly Cloudy
6:16 AM 33.8 °F - 32.0 °F 93% 30.17 in 10.0 mi Calm Calm - N/A   Mostly Cloudy
6:36 AM 35.6 °F - 32.0 °F 87% 30.18 in 10.0 mi Calm Calm - N/A   Mostly Cloudy
6:56 AM 35.6 °F - 30.2 °F 81% 30.17 in 10.0 mi Calm Calm - N/A   Mostly Cloudy
7:16 AM 33.8 °F - 32.0 °F 93% 30.18 in 10.0 mi Calm Calm - N/A   Mostly Cloudy
7:36 AM 35.6 °F - 33.8 °F 93% 30.18 in 10.0 mi Calm Calm - N/A   Mostly Cloudy
7:56 AM 35.6 °F - 33.8 °F 93% 30.18 in 10.0 mi Calm Calm - N/A   Mostly Cloudy
8:16 AM 35.6 °F - 33.8 °F 93% 30.19 in 10.0 mi Calm Calm - N/A   Mostly Cloudy
8:36 AM 35.6 °F 32.8 °F 33.8 °F 93% 30.19 in 10.0 mi WSW 3.5 mph - N/A   Mostly Cloudy
8:56 AM 35.6 °F - 33.8 °F 93% 30.19 in 10.0 mi Calm Calm - N/A   Mostly Cloudy
9:16 AM 37.4 °F - 33.8 °F 87% 30.19 in 10.0 mi Calm Calm - N/A   Mostly Cloudy
9:36 AM 37.4 °F - 33.8 °F 87% 30.20 in 10.0 mi Calm Calm - N/A   Mostly Cloudy
9:56 AM 37.4 °F - 33.8 °F 87% 30.20 in 10.0 mi Calm Calm - N/A   Mostly Cloudy
10:16 AM 37.4 °F - 33.8 °F 87% 30.20 in 10.0 mi Calm Calm - N/A   Mostly Cloudy
10:36 AM 37.4 °F 34.9 °F 33.8 °F 87% 30.20 in 10.0 mi West 3.5 mph - N/A   Mostly Cloudy
10:56 AM 37.4 °F 34.9 °F 33.8 °F 87% 30.21 in 10.0 mi West 3.5 mph - N/A   Mostly Cloudy
11:16 AM 39.2 °F 35.9 °F 33.8 °F 81% 30.21 in 10.0 mi West 4.6 mph - N/A   Mostly Cloudy
11:36 AM 39.2 °F 35.9 °F 33.8 °F 81% 30.21 in 10.0 mi West 4.6 mph - N/A   Mostly Cloudy
11:56 AM 39.2 °F 35.9 °F 33.8 °F 81% 30.22 in 10.0 mi West 4.6 mph - N/A   Mostly Cloudy
12:16 PM 39.2 °F 37.0 °F 32.0 °F 75% 30.22 in 10.0 mi WSW 3.5 mph - N/A   Mostly Cloudy
12:36 PM 39.2 °F 35.9 °F 33.8 °F 81% 30.22 in 10.0 mi West 4.6 mph - N/A   Mostly Cloudy
12:56 PM 39.2 °F 35.9 °F 32.0 °F 75% 30.23 in 10.0 mi West 4.6 mph - N/A   Scattered Clouds
1:16 PM 41.0 °F 39.0 °F 32.0 °F 70% 30.23 in 10.0 mi WSW 3.5 mph - N/A   Scattered Clouds
1:36 PM 41.0 °F 38.0 °F 32.0 °F 70% 30.23 in 10.0 mi West 4.6 mph - N/A   Scattered Clouds
1:56 PM 39.2 °F 35.9 °F 32.0 °F 75% 30.23 in 10.0 mi West 4.6 mph - N/A   Scattered Clouds
2:16 PM 39.2 °F 37.0 °F 30.2 °F 70% 30.23 in 10.0 mi West 3.5 mph - N/A   Scattered Clouds
2:36 PM 41.0 °F 38.0 °F 30.2 °F 65% 30.24 in 10.0 mi West 4.6 mph - N/A   Scattered Clouds
2:56 PM 41.0 °F 38.0 °F 30.2 °F 65% 30.24 in 10.0 mi West 4.6 mph - N/A   Scattered Clouds
3:16 PM 42.8 °F 41.1 °F 30.2 °F 61% 30.25 in 10.0 mi West 3.5 mph - N/A   Scattered Clouds
3:36 PM 41.0 °F 38.0 °F 32.0 °F 70% 30.25 in 10.0 mi WSW 4.6 mph - N/A   Scattered Clouds
3:56 PM 41.0 °F 38.0 °F 30.2 °F 65% 30.25 in 10.0 mi SW 4.6 mph - N/A   Scattered Clouds
4:16 PM 39.2 °F 37.0 °F 30.2 °F 70% 30.25 in 10.0 mi West 3.5 mph - N/A   Scattered Clouds
4:36 PM 41.0 °F 38.0 °F 30.2 °F 65% 30.25 in 10.0 mi WSW 4.6 mph - N/A   Scattered Clouds
4:56 PM 41.0 °F - 30.2 °F 65% 30.25 in 10.0 mi Calm Calm - N/A   Scattered Clouds
5:16 PM 42.8 °F 41.1 °F 30.2 °F 61% 30.25 in 10.0 mi West 3.5 mph - N/A   Scattered Clouds
5:36 PM 42.8 °F 41.1 °F 30.2 °F 61% 30.25 in 10.0 mi WSW 3.5 mph - N/A   Scattered Clouds
5:56 PM 42.8 °F - 28.4 °F 57% 30.25 in 10.0 mi Calm Calm - N/A   Scattered Clouds
6:16 PM 42.8 °F 41.1 °F 30.2 °F 61% 30.25 in 10.0 mi SSW 3.5 mph - N/A   Scattered Clouds
6:36 PM 42.8 °F - 30.2 °F 61% 30.25 in 10.0 mi Calm Calm - N/A   Scattered Clouds
6:56 PM 41.0 °F 39.0 °F 30.2 °F 65% 30.25 in 10.0 mi WSW 3.5 mph - N/A   Overcast
7:16 PM 41.0 °F 38.0 °F 30.2 °F 65% 30.25 in 10.0 mi West 4.6 mph - N/A   Overcast
7:56 PM 41.0 °F 39.0 °F 30.2 °F 65% 30.25 in 10.0 mi West 3.5 mph - N/A   Mostly Cloudy
8:36 PM 41.0 °F - 30.2 °F 65% 30.26 in 10.0 mi Calm Calm - N/A   Mostly Cloudy
9:16 PM 39.2 °F - 28.4 °F 65% 30.26 in 10.0 mi Calm Calm - N/A   Mostly Cloudy
9:56 PM 39.2 °F - 30.2 °F 70% 30.27 in 10.0 mi Calm Calm - N/A   Mostly Cloudy
10:16 PM 39.2 °F - 30.2 °F 70% 30.27 in 10.0 mi Calm Calm - N/A   Overcast
10:36 PM 39.2 °F - 30.2 °F 70% 30.28 in 10.0 mi Calm Calm - N/A   Overcast
10:56 PM 37.4 °F - 30.2 °F 75% 30.28 in 10.0 mi Calm Calm - N/A   Overcast
11:36 PM 37.4 °F - 30.2 °F 75% 30.28 in 10.0 mi Calm Calm - N/A   Overcast